FDX12T YPDN-YBCS

Flight info

Callsign FDX12T
Flight time 2h 8m
Altitude 35000
Route RUPEG DCT GTE J27 GUGUK J61 PUNIT
Aircraft MD11/H-SDE1E2E3FGHIJ2J3J4J5M1RWXY/LB1D1

Departure

Time 2026-04-25 11:41
Airport Darwin International Airport / RAAF Darwin (YPDN)

Arrival

Time 2026-04-25 13:49
Airport Cairns International Airport (YBCS)
Time Latitude Longitude Altitude Speed Heading
2026-04-25 10:44 -12.41089 130.88385 98 ft 0 kts 195°
2026-04-25 10:45 -12.41088 130.88385 98 ft 0 kts 195°
2026-04-25 11:08 -12.41087 130.88385 98 ft 0 kts 195°
2026-04-25 11:23 -12.41096 130.88382 98 ft 2 kts 195°
2026-04-25 11:23 -12.41081 130.88387 100 ft 0 kts 184°
2026-04-25 11:23 -12.41057 130.88292 101 ft 0 kts 292°
2026-04-25 11:27 -12.41056 130.88290 101 ft 2 kts 291°
2026-04-25 11:28 -12.41059 130.88272 103 ft 1 kts 239°
2026-04-25 11:28 -12.41060 130.88271 102 ft 0 kts 233°
2026-04-25 11:28 -12.41064 130.88270 102 ft 1 kts 212°
2026-04-25 11:28 -12.41075 130.88276 101 ft 2 kts 143°
2026-04-25 11:29 -12.41091 130.88305 99 ft 1 kts 113°
2026-04-25 11:29 -12.41117 130.88325 99 ft 7 kts 159°
2026-04-25 11:29 -12.41155 130.88350 102 ft 3 kts 135°
2026-04-25 11:29 -12.41180 130.88407 102 ft 16 kts 109°
2026-04-25 11:30 -12.41202 130.88484 101 ft 6 kts 105°
2026-04-25 11:30 -12.41212 130.88516 100 ft 4 kts 108°
2026-04-25 11:30 -12.41215 130.88531 101 ft 1 kts 94°
2026-04-25 11:30 -12.41212 130.88545 100 ft 4 kts 78°
2026-04-25 11:31 -12.41211 130.88561 101 ft 1 kts 99°
2026-04-25 11:31 -12.41220 130.88572 102 ft 2 kts 130°
2026-04-25 11:31 -12.41232 130.88571 102 ft 2 kts 192°
2026-04-25 11:31 -12.41235 130.88554 102 ft 3 kts 276°
2026-04-25 11:32 -12.41209 130.88488 101 ft 17 kts 290°
2026-04-25 11:32 -12.41170 130.88374 102 ft 17 kts 288°
2026-04-25 11:32 -12.41137 130.88270 101 ft 14 kts 288°
2026-04-25 11:32 -12.41112 130.88189 105 ft 10 kts 287°
2026-04-25 11:33 -12.41099 130.88139 106 ft 3 kts 276°
2026-04-25 11:33 -12.41102 130.88116 106 ft 3 kts 248°
2026-04-25 11:33 -12.41133 130.88092 106 ft 9 kts 208°
2026-04-25 11:33 -12.41226 130.88058 106 ft 20 kts 198°
2026-04-25 11:34 -12.41328 130.88023 106 ft 6 kts 199°
2026-04-25 11:34 -12.41367 130.88009 104 ft 6 kts 198°
2026-04-25 11:34 -12.41435 130.87987 104 ft 16 kts 197°
2026-04-25 11:34 -12.41554 130.87943 106 ft 18 kts 199°
2026-04-25 11:35 -12.41644 130.87878 107 ft 14 kts 240°
2026-04-25 11:35 -12.41652 130.87797 108 ft 10 kts 287°
2026-04-25 11:35 -12.41634 130.87742 109 ft 7 kts 288°
2026-04-25 11:35 -12.41616 130.87682 109 ft 11 kts 287°
2026-04-25 11:36 -12.41586 130.87601 112 ft 14 kts 289°
2026-04-25 11:36 -12.41548 130.87484 111 ft 20 kts 288°
2026-04-25 11:36 -12.41498 130.87335 113 ft 22 kts 290°
2026-04-25 11:36 -12.41449 130.87197 110 ft 16 kts 288°
2026-04-25 11:37 -12.41422 130.87114 110 ft 8 kts 287°
2026-04-25 11:37 -12.41426 130.87084 110 ft 4 kts 243°
2026-04-25 11:37 -12.41467 130.87068 111 ft 10 kts 188°
2026-04-25 11:37 -12.41560 130.87068 110 ft 17 kts 180°
2026-04-25 11:38 -12.41711 130.87068 112 ft 26 kts 179°
2026-04-25 11:38 -12.41908 130.87070 112 ft 28 kts 180°
2026-04-25 11:38 -12.42080 130.87071 115 ft 18 kts 180°
2026-04-25 11:38 -12.42177 130.87078 114 ft 11 kts 169°
2026-04-25 11:39 -12.42233 130.87089 113 ft 4 kts 178°
2026-04-25 11:39 -12.42240 130.87082 112 ft 1 kts 225°
2026-04-25 11:39 -12.42239 130.87073 114 ft 1 kts 276°
2026-04-25 11:39 -12.42231 130.87068 114 ft 1 kts 325°
2026-04-25 11:40 -12.42223 130.87069 112 ft 0 kts 360°
2026-04-25 11:40 -12.41908 130.87068 111 ft 90 kts 360°
2026-04-25 11:41 -12.41015 130.87065 106 ft 164 kts 358°
2026-04-25 11:41 -12.39787 130.86981 560 ft 180 kts 358°
2026-04-25 11:41 -12.38471 130.86953 1221 ft 197 kts
2026-04-25 11:41 -12.36628 130.87205 2145 ft 206 kts 27°
2026-04-25 11:42 -12.35829 130.87755 2541 ft 207 kts 52°
2026-04-25 11:42 -12.35279 130.89121 2909 ft 217 kts 87°
2026-04-25 11:42 -12.35429 130.90661 3401 ft 219 kts 104°
2026-04-25 11:42 -12.35829 130.92169 3838 ft 225 kts 108°
2026-04-25 11:43 -12.36365 130.93755 3936 ft 247 kts 112°
2026-04-25 11:43 -12.37015 130.95419 4443 ft 256 kts 112°
2026-04-25 11:43 -12.37626 130.97132 5214 ft 256 kts 109°
2026-04-25 11:43 -12.38126 130.98881 6033 ft 257 kts 106°
2026-04-25 11:44 -12.38554 131.00631 6791 ft 257 kts 107°
2026-04-25 11:44 -12.39075 131.02402 7498 ft 258 kts 109°
2026-04-25 11:44 -12.39605 131.04172 8105 ft 264 kts 108°
2026-04-25 11:44 -12.40113 131.05987 8613 ft 273 kts 106°
2026-04-25 11:45 -12.40636 131.07881 9159 ft 281 kts 108°
2026-04-25 11:45 -12.41215 131.09812 9753 ft 287 kts 108°
2026-04-25 11:45 -12.41834 131.11778 10266 ft 294 kts 108°
2026-04-25 11:45 -12.42438 131.13869 10421 ft 318 kts 106°
2026-04-25 11:46 -12.43028 131.16137 10552 ft 341 kts 105°
2026-04-25 11:46 -12.43649 131.18564 10675 ft 363 kts 105°
2026-04-25 11:46 -12.44306 131.21104 11148 ft 372 kts 105°
2026-04-25 11:46 -12.44978 131.23677 11786 ft 377 kts 105°
2026-04-25 11:47 -12.45665 131.26278 12441 ft 381 kts 105°
2026-04-25 11:47 -12.46363 131.28904 13086 ft 385 kts 105°
2026-04-25 11:47 -12.47072 131.31561 13748 ft 389 kts 105°
2026-04-25 11:47 -12.47788 131.34242 14316 ft 392 kts 105°
2026-04-25 11:48 -12.48509 131.36939 14935 ft 394 kts 105°
2026-04-25 11:48 -12.49234 131.39649 15553 ft 395 kts 105°
2026-04-25 11:48 -12.49961 131.42367 16162 ft 398 kts 105°
2026-04-25 11:48 -12.50681 131.45063 16745 ft 400 kts 105°
2026-04-25 11:49 -12.51426 131.47853 17358 ft 402 kts 105°
2026-04-25 11:49 -12.52165 131.50620 17940 ft 404 kts 105°
2026-04-25 11:49 -12.52905 131.53394 18493 ft 406 kts 105°
2026-04-25 11:49 -12.53651 131.56190 18950 ft 409 kts 105°
2026-04-25 11:50 -12.54405 131.59017 19389 ft 413 kts 105°
2026-04-25 11:50 -12.55163 131.61860 19838 ft 416 kts 105°
2026-04-25 11:50 -12.55927 131.64729 20278 ft 419 kts 105°
2026-04-25 11:50 -12.56687 131.67583 20713 ft 423 kts 105°
2026-04-25 11:51 -12.57462 131.70496 21148 ft 426 kts 105°
2026-04-25 11:51 -12.58240 131.73434 21579 ft 429 kts 105°
2026-04-25 11:51 -12.59024 131.76399 22010 ft 433 kts 105°
2026-04-25 11:51 -12.59813 131.79383 22440 ft 436 kts 105°
2026-04-25 11:52 -12.60609 131.82387 22861 ft 439 kts 105°
2026-04-25 11:52 -12.61414 131.85421 23255 ft 443 kts 105°
2026-04-25 11:52 -12.62224 131.88476 23646 ft 447 kts 105°
2026-04-25 11:52 -12.63040 131.91552 23995 ft 449 kts 105°
2026-04-25 11:53 -12.63862 131.94651 24350 ft 452 kts 106°
2026-04-25 11:53 -12.64689 131.97771 24689 ft 455 kts 106°
2026-04-25 11:53 -12.65518 132.00904 25046 ft 458 kts 106°
2026-04-25 11:53 -12.66399 132.04047 25379 ft 460 kts 108°
2026-04-25 11:54 -12.67403 132.07168 25715 ft 463 kts 110°
2026-04-25 11:54 -12.68480 132.10281 26043 ft 465 kts 111°
2026-04-25 11:54 -12.70709 132.16551 26706 ft 471 kts 111°
2026-04-25 11:55 -12.71829 132.19708 27022 ft 473 kts 111°
2026-04-25 11:55 -12.72950 132.22888 27350 ft 476 kts 111°
2026-04-25 11:55 -12.74057 132.26047 27651 ft 478 kts 111°
2026-04-25 11:55 -12.75182 132.29265 27962 ft 481 kts 111°
2026-04-25 11:56 -12.76313 132.32505 28258 ft 483 kts 111°
2026-04-25 11:56 -12.77444 132.35750 28551 ft 486 kts 111°
2026-04-25 11:56 -12.78583 132.39020 28814 ft 489 kts 111°
2026-04-25 11:56 -12.79732 132.42318 29104 ft 492 kts 111°
2026-04-25 11:57 -12.80884 132.45627 29389 ft 494 kts 111°
2026-04-25 11:57 -12.82042 132.48954 29675 ft 497 kts 111°
2026-04-25 11:57 -12.83206 132.52299 29964 ft 499 kts 111°
2026-04-25 11:57 -12.84373 132.55656 30298 ft 500 kts 111°
2026-04-25 11:58 -12.85538 132.59008 30663 ft 499 kts 111°
2026-04-25 11:58 -12.86702 132.62359 31032 ft 499 kts 111°
2026-04-25 11:58 -12.87863 132.65700 31398 ft 498 kts 111°
2026-04-25 11:58 -12.89024 132.69045 31749 ft 497 kts 110°
2026-04-25 11:59 -12.90165 132.72334 32088 ft 497 kts 110°
2026-04-25 11:59 -12.91323 132.75673 32430 ft 496 kts 110°
2026-04-25 11:59 -12.92476 132.78999 32766 ft 496 kts 110°
2026-04-25 12:00 -12.94779 132.85654 33382 ft 495 kts 110°
2026-04-25 12:00 -12.95928 132.88985 33644 ft 496 kts 110°
2026-04-25 12:00 -12.98227 132.95650 34215 ft 495 kts 110°
2026-04-25 12:01 -12.99375 132.98975 34467 ft 494 kts 110°
2026-04-25 12:01 -13.00522 133.02294 34719 ft 494 kts 110°
2026-04-25 12:01 -13.01668 133.05611 34939 ft 494 kts 110°
2026-04-25 12:02 -13.05129 133.15639 35048 ft 497 kts 110°
2026-04-25 12:02 -13.07429 133.22312 35058 ft 495 kts 110°
2026-04-25 12:03 -13.09722 133.28972 35058 ft 495 kts 110°
2026-04-25 12:03 -13.12015 133.35636 35065 ft 496 kts 110°
2026-04-25 12:04 -13.14311 133.42315 35064 ft 497 kts 110°
2026-04-25 12:04 -13.16607 133.49002 35064 ft 497 kts 110°
2026-04-25 12:05 -13.18887 133.55647 35075 ft 496 kts 110°
2026-04-25 12:05 -13.21176 133.62327 35075 ft 496 kts 110°
2026-04-25 12:06 -13.23455 133.69003 35078 ft 495 kts 110°
2026-04-25 12:06 -13.25730 133.75676 35078 ft 495 kts 110°
2026-04-25 12:07 -13.28007 133.82342 35077 ft 495 kts 110°
2026-04-25 12:07 -13.30285 133.89014 35078 ft 495 kts 110°
2026-04-25 12:08 -13.32563 133.95691 35081 ft 495 kts 110°
2026-04-25 12:08 -13.34839 134.02369 35078 ft 496 kts 110°
2026-04-25 12:09 -13.37111 134.09042 35078 ft 495 kts 110°
2026-04-25 12:09 -13.39384 134.15724 35078 ft 495 kts 110°
2026-04-25 12:10 -13.41652 134.22399 35078 ft 495 kts 110°
2026-04-25 12:10 -13.43921 134.29082 35077 ft 496 kts 110°
2026-04-25 12:11 -13.46198 134.35796 35078 ft 498 kts 110°
2026-04-25 12:11 -13.48473 134.42510 35075 ft 498 kts 110°
2026-04-25 12:12 -13.50358 134.48095 35074 ft 498 kts 110°
2026-04-25 12:12 -13.53004 134.55946 35075 ft 498 kts 110°
2026-04-25 12:13 -13.55271 134.62664 35075 ft 497 kts 110°
2026-04-25 12:13 -13.57537 134.69378 35075 ft 497 kts 110°
2026-04-25 12:14 -13.59801 134.76095 35075 ft 498 kts 110°
2026-04-25 12:14 -13.62054 134.82781 35076 ft 499 kts 110°
2026-04-25 12:15 -13.64324 134.89528 35075 ft 499 kts 110°
2026-04-25 12:15 -13.66590 134.96270 35074 ft 499 kts 110°
2026-04-25 12:16 -13.68853 135.03007 35080 ft 499 kts 110°
2026-04-25 12:16 -13.71114 135.09749 35081 ft 499 kts 110°
2026-04-25 12:17 -13.73378 135.16503 35077 ft 499 kts 110°
2026-04-25 12:17 -13.75632 135.23234 35079 ft 499 kts 110°
2026-04-25 12:18 -13.77886 135.29994 35078 ft 499 kts 110°
2026-04-25 12:18 -13.80119 135.36702 35077 ft 499 kts 110°
2026-04-25 12:19 -13.83497 135.46833 35077 ft 500 kts 110°
2026-04-25 12:20 -13.85752 135.53597 35078 ft 500 kts 110°
2026-04-25 12:20 -13.88004 135.60360 35076 ft 500 kts 110°
2026-04-25 12:21 -13.90256 135.67131 35072 ft 500 kts 110°
2026-04-25 12:21 -13.92507 135.73906 35072 ft 500 kts 110°
2026-04-25 12:22 -13.94757 135.80685 35069 ft 500 kts 110°
2026-04-25 12:22 -13.97007 135.87471 35070 ft 501 kts 110°
2026-04-25 12:23 -13.99259 135.94271 35073 ft 501 kts 110°
2026-04-25 12:23 -14.01500 136.01041 35073 ft 503 kts 111°
2026-04-25 12:24 -14.03755 136.07870 35071 ft 503 kts 110°
2026-04-25 12:24 -14.05999 136.14697 35066 ft 503 kts 110°
2026-04-25 12:25 -14.08244 136.21521 35067 ft 503 kts 111°
2026-04-25 12:25 -14.10493 136.28346 35066 ft 503 kts 111°
2026-04-25 12:26 -14.12740 136.35174 35069 ft 503 kts 111°
2026-04-25 12:26 -14.14987 136.42008 35068 ft 503 kts 111°
2026-04-25 12:27 -14.17233 136.48844 35069 ft 504 kts 111°
2026-04-25 12:27 -14.19479 136.55691 35070 ft 504 kts 111°
2026-04-25 12:28 -14.21707 136.62488 35067 ft 504 kts 111°
2026-04-25 12:28 -14.23946 136.69328 35066 ft 504 kts 111°
2026-04-25 12:29 -14.26189 136.76185 35064 ft 504 kts 111°
2026-04-25 12:29 -14.28429 136.83042 35065 ft 505 kts 111°
2026-04-25 12:30 -14.30289 136.88745 35068 ft 505 kts 111°
2026-04-25 12:30 -14.32522 136.95625 35070 ft 505 kts 111°
2026-04-25 12:31 -14.34752 137.02489 35068 ft 505 kts 111°
2026-04-25 12:31 -14.36985 137.09356 35071 ft 505 kts 111°
2026-04-25 12:32 -14.39216 137.16219 35068 ft 505 kts 111°
2026-04-25 12:32 -14.41444 137.23080 35056 ft 505 kts 111°
2026-04-25 12:33 -14.43671 137.29948 35070 ft 505 kts 111°
2026-04-25 12:33 -14.45894 137.36812 35071 ft 505 kts 111°
2026-04-25 12:34 -14.48116 137.43678 35058 ft 505 kts 111°
2026-04-25 12:34 -14.50320 137.50497 35073 ft 505 kts 111°
2026-04-25 12:35 -14.52555 137.57422 35064 ft 505 kts 111°
2026-04-25 12:35 -14.54759 137.64254 35072 ft 505 kts 111°
2026-04-25 12:36 -14.56972 137.71132 35074 ft 505 kts 111°
2026-04-25 12:36 -14.59177 137.78017 35061 ft 505 kts 111°
2026-04-25 12:37 -14.61385 137.84903 35066 ft 505 kts 111°
2026-04-25 12:37 -14.63596 137.91792 35066 ft 505 kts 111°
2026-04-25 12:38 -14.65806 137.98681 35068 ft 505 kts 111°
2026-04-25 12:38 -14.68014 138.05572 35064 ft 505 kts 111°
2026-04-25 12:39 -14.70217 138.12458 35063 ft 505 kts 111°
2026-04-25 12:39 -14.72409 138.19316 35062 ft 505 kts 111°
2026-04-25 12:40 -14.74624 138.26255 35065 ft 505 kts 111°
2026-04-25 12:40 -14.76823 138.33151 35069 ft 505 kts 111°
2026-04-25 12:41 -14.79021 138.40049 35065 ft 505 kts 111°
2026-04-25 12:41 -14.81201 138.46902 35063 ft 505 kts 111°
2026-04-25 12:42 -14.83392 138.53808 35065 ft 506 kts 111°
2026-04-25 12:42 -14.85578 138.60726 35060 ft 506 kts 111°
2026-04-25 12:43 -14.87762 138.67629 35062 ft 507 kts 111°
2026-04-25 12:43 -14.91055 138.78030 35056 ft 506 kts 111°
2026-04-25 12:44 -14.93244 138.84952 35057 ft 506 kts 111°
2026-04-25 12:45 -14.96395 138.95398 35060 ft 507 kts 110°
2026-04-25 12:45 -14.99455 139.05875 35059 ft 507 kts 110°
2026-04-25 12:46 -15.01488 139.12810 35061 ft 507 kts 110°
2026-04-25 12:46 -15.03532 139.19780 35062 ft 507 kts 110°
2026-04-25 12:47 -15.05584 139.26785 35059 ft 508 kts 110°
2026-04-25 12:47 -15.07632 139.33784 35058 ft 508 kts 110°
2026-04-25 12:48 -15.09672 139.40766 35054 ft 508 kts 110°
2026-04-25 12:48 -15.11717 139.47775 35055 ft 508 kts 110°
2026-04-25 12:49 -15.13756 139.54772 35060 ft 508 kts 110°
2026-04-25 12:49 -15.15794 139.61776 35055 ft 508 kts 110°
2026-04-25 12:50 -15.17829 139.68776 35057 ft 508 kts 110°
2026-04-25 12:50 -15.19854 139.75787 35053 ft 508 kts 109°
2026-04-25 12:51 -15.21881 139.82802 35052 ft 508 kts 110°
2026-04-25 12:51 -15.23906 139.89799 35054 ft 509 kts 110°
2026-04-25 12:52 -15.25940 139.96831 35054 ft 508 kts 110°
2026-04-25 12:52 -15.27967 140.03846 35051 ft 509 kts 110°
2026-04-25 12:53 -15.29992 140.10866 35051 ft 509 kts 110°
2026-04-25 12:53 -15.32016 140.17891 35051 ft 509 kts 110°
2026-04-25 12:54 -15.34038 140.24918 35050 ft 509 kts 110°
2026-04-25 12:54 -15.36044 140.31899 35051 ft 509 kts 110°
2026-04-25 12:55 -15.37733 140.37784 35050 ft 509 kts 110°
2026-04-25 12:55 -15.40078 140.45963 35050 ft 509 kts 110°
2026-04-25 12:56 -15.42090 140.52998 35051 ft 509 kts 109°
2026-04-25 12:56 -15.44091 140.60036 35051 ft 509 kts 109°
2026-04-25 12:57 -15.46092 140.67066 35057 ft 508 kts 110°
2026-04-25 12:57 -15.48097 140.74097 35052 ft 509 kts 110°
2026-04-25 12:58 -15.50100 140.81131 35051 ft 509 kts 110°
2026-04-25 12:58 -15.52098 140.88154 35053 ft 509 kts 109°
2026-04-25 12:59 -15.54088 140.95161 35051 ft 509 kts 109°
2026-04-25 12:59 -15.56086 141.02205 35053 ft 509 kts 109°
2026-04-25 13:00 -15.57422 141.06918 35055 ft 509 kts 109°
2026-04-25 13:00 -15.60078 141.16304 35057 ft 510 kts 109°
2026-04-25 13:01 -15.62074 141.23369 35053 ft 510 kts 109°
2026-04-25 13:01 -15.64067 141.30433 35056 ft 510 kts 109°
2026-04-25 13:02 -15.66056 141.37506 35058 ft 510 kts 109°
2026-04-25 13:02 -15.68033 141.44574 35056 ft 510 kts 109°
2026-04-25 13:03 -15.70017 141.51648 35056 ft 510 kts 109°
2026-04-25 13:03 -15.72005 141.58731 35056 ft 510 kts 109°
2026-04-25 13:04 -15.73982 141.65784 35053 ft 510 kts 109°
2026-04-25 13:04 -15.75970 141.72886 35053 ft 511 kts 109°
2026-04-25 13:05 -15.77936 141.79919 35054 ft 511 kts 109°
2026-04-25 13:05 -15.79914 141.87005 35054 ft 511 kts 109°
2026-04-25 13:06 -15.81892 141.94101 35056 ft 512 kts 109°
2026-04-25 13:06 -15.83868 142.01202 35056 ft 512 kts 109°
2026-04-25 13:07 -15.85843 142.08304 35059 ft 512 kts 110°
2026-04-25 13:07 -15.87820 142.15424 35056 ft 513 kts 110°
2026-04-25 13:08 -15.89784 142.22540 35056 ft 514 kts 109°
2026-04-25 13:08 -15.91754 142.29691 35064 ft 514 kts 110°
2026-04-25 13:09 -15.93727 142.36835 35060 ft 514 kts 110°
2026-04-25 13:09 -15.95699 142.43978 35063 ft 514 kts 110°
2026-04-25 13:10 -15.97657 142.51082 35067 ft 514 kts 110°
2026-04-25 13:10 -15.99622 142.58217 35067 ft 515 kts 110°
2026-04-25 13:11 -16.01593 142.65388 35066 ft 515 kts 110°
2026-04-25 13:11 -16.03561 142.72555 35072 ft 515 kts 110°
2026-04-25 13:12 -16.05527 142.79727 35078 ft 515 kts 109°
2026-04-25 13:12 -16.06839 142.84521 35075 ft 515 kts 109°
2026-04-25 13:13 -16.09448 142.94062 35077 ft 516 kts 109°
2026-04-25 13:13 -16.11405 143.01233 35079 ft 516 kts 109°
2026-04-25 13:14 -16.13350 143.08413 35081 ft 516 kts 109°
2026-04-25 13:14 -16.15290 143.15564 35080 ft 516 kts 109°
2026-04-25 13:15 -16.17243 143.22754 35080 ft 516 kts 109°
2026-04-25 13:15 -16.19195 143.29946 35087 ft 517 kts 110°
2026-04-25 13:16 -16.20818 143.35931 35089 ft 517 kts 110°
2026-04-25 13:16 -16.22761 143.43110 35088 ft 517 kts 109°
2026-04-25 13:17 -16.24715 143.50339 35091 ft 517 kts 109°
2026-04-25 13:17 -16.26659 143.57540 35089 ft 517 kts 109°
2026-04-25 13:18 -16.28601 143.64746 35091 ft 517 kts 109°
2026-04-25 13:18 -16.30542 143.71960 35091 ft 517 kts 109°
2026-04-25 13:19 -16.32477 143.79162 35056 ft 517 kts 109°
2026-04-25 13:19 -16.33444 143.82764 34422 ft 513 kts 110°
2026-04-25 13:19 -16.34069 143.85105 33911 ft 509 kts 110°
2026-04-25 13:20 -16.35309 143.89772 32971 ft 500 kts 110°
2026-04-25 13:20 -16.36237 143.93264 32335 ft 497 kts 110°
2026-04-25 13:20 -16.37163 143.96728 31737 ft 497 kts 110°
2026-04-25 13:20 -16.38094 144.00207 31152 ft 497 kts 110°
2026-04-25 13:21 -16.39022 144.03678 30572 ft 497 kts 109°
2026-04-25 13:21 -16.39950 144.07149 29979 ft 497 kts 109°
2026-04-25 13:21 -16.40877 144.10620 29328 ft 497 kts 109°
2026-04-25 13:21 -16.41803 144.14089 28719 ft 497 kts 109°
2026-04-25 13:22 -16.42727 144.17558 28138 ft 497 kts 109°
2026-04-25 13:22 -16.43650 144.21025 27562 ft 497 kts 109°
2026-04-25 13:22 -16.44573 144.24493 26970 ft 497 kts 109°
2026-04-25 13:23 -16.46416 144.31425 25725 ft 496 kts 109°
2026-04-25 13:23 -16.47335 144.34889 25105 ft 495 kts 109°
2026-04-25 13:23 -16.48253 144.38350 24483 ft 495 kts 109°
2026-04-25 13:23 -16.49168 144.41800 23866 ft 493 kts 109°
2026-04-25 13:24 -16.50075 144.45227 23184 ft 487 kts 108°
2026-04-25 13:24 -16.50969 144.48608 22520 ft 482 kts 108°
2026-04-25 13:24 -16.51857 144.51965 21898 ft 478 kts 108°
2026-04-25 13:24 -16.52737 144.55292 21297 ft 474 kts 108°
2026-04-25 13:25 -16.53608 144.58587 20688 ft 470 kts 108°
2026-04-25 13:25 -16.54464 144.61827 20116 ft 467 kts 108°
2026-04-25 13:25 -16.55322 144.65077 19536 ft 464 kts 107°
2026-04-25 13:25 -16.56174 144.68309 18960 ft 460 kts 107°
2026-04-25 13:26 -16.57012 144.71507 18378 ft 457 kts 107°
2026-04-25 13:26 -16.57847 144.74702 17733 ft 453 kts 107°
2026-04-25 13:26 -16.58672 144.77852 17131 ft 448 kts 107°
2026-04-25 13:26 -16.59488 144.80968 16565 ft 443 kts 107°
2026-04-25 13:27 -16.60297 144.84050 16013 ft 437 kts 107°
2026-04-25 13:27 -16.61094 144.87087 15458 ft 432 kts 107°
2026-04-25 13:27 -16.61884 144.90095 14918 ft 427 kts 107°
2026-04-25 13:27 -16.62500 144.93097 14383 ft 423 kts 96°
2026-04-25 13:28 -16.62821 144.96109 14276 ft 418 kts 105°
2026-04-25 13:28 -16.63439 144.97977 14278 ft 413 kts 117°
2026-04-25 13:28 -16.65788 145.01089 14281 ft 408 kts 143°
2026-04-25 13:28 -16.68245 145.02509 14285 ft 404 kts 163°
2026-04-25 13:29 -16.70992 145.02977 14284 ft 400 kts 182°
2026-04-25 13:29 -16.73722 145.02661 14206 ft 399 kts 187°
2026-04-25 13:29 -16.76491 145.02701 14039 ft 399 kts 171°
2026-04-25 13:30 -16.81387 145.05140 12382 ft 390 kts 137°
2026-04-25 13:30 -16.83006 145.07366 11602 ft 384 kts 118°
2026-04-25 13:30 -16.83915 145.09921 10819 ft 379 kts 106°
2026-04-25 13:31 -16.84939 145.15161 9894 ft 349 kts 102°
2026-04-25 13:31 -16.85351 145.17581 9744 ft 328 kts 102°
2026-04-25 13:31 -16.85735 145.19853 9624 ft 309 kts 102°
2026-04-25 13:31 -16.86091 145.21966 9442 ft 282 kts 102°
2026-04-25 13:32 -16.86427 145.23954 8944 ft 275 kts 102°
2026-04-25 13:32 -16.86759 145.25897 8497 ft 272 kts 102°
2026-04-25 13:32 -16.87089 145.27831 8070 ft 268 kts 101°
2026-04-25 13:32 -16.87410 145.29719 7710 ft 264 kts 102°
2026-04-25 13:33 -16.87781 145.31594 7356 ft 263 kts 105°
2026-04-25 13:33 -16.88291 145.33426 7004 ft 261 kts 109°
2026-04-25 13:33 -16.88918 145.35181 6835 ft 255 kts 112°
2026-04-25 13:33 -16.89380 145.36313 6819 ft 257 kts 114°
2026-04-25 13:34 -16.90400 145.38572 6808 ft 257 kts 116°
2026-04-25 13:34 -16.91274 145.40199 6794 ft 257 kts 127°
2026-04-25 13:34 -16.92535 145.41515 6802 ft 258 kts 140°
2026-04-25 13:34 -16.93963 145.42650 6801 ft 258 kts 142°
2026-04-25 13:35 -16.95376 145.43707 6795 ft 259 kts 143°
2026-04-25 13:35 -16.96876 145.44812 6795 ft 259 kts 143°
2026-04-25 13:35 -16.98328 145.45874 6801 ft 259 kts 143°
2026-04-25 13:35 -16.99815 145.46958 6804 ft 259 kts 143°
2026-04-25 13:36 -17.01297 145.48037 6801 ft 259 kts 143°
2026-04-25 13:36 -17.02781 145.49116 6803 ft 259 kts 143°
2026-04-25 13:36 -17.04257 145.50188 6802 ft 258 kts 143°
2026-04-25 13:36 -17.05736 145.51260 6798 ft 258 kts 143°
2026-04-25 13:37 -17.07213 145.52332 6801 ft 259 kts 143°
2026-04-25 13:37 -17.08663 145.53384 6799 ft 245 kts 144°
2026-04-25 13:37 -17.10026 145.54371 6786 ft 235 kts 144°
2026-04-25 13:37 -17.11376 145.55350 6799 ft 235 kts 143°
2026-04-25 13:38 -17.12710 145.56318 6815 ft 232 kts 143°
2026-04-25 13:38 -17.14014 145.57264 6808 ft 231 kts 143°
2026-04-25 13:38 -17.15354 145.58237 6805 ft 231 kts 143°
2026-04-25 13:38 -17.16668 145.59191 6796 ft 230 kts 143°
2026-04-25 13:39 -17.17983 145.60145 6805 ft 230 kts 143°
2026-04-25 13:39 -17.19307 145.61107 6806 ft 231 kts 143°
2026-04-25 13:39 -17.20619 145.62073 6800 ft 230 kts 141°
2026-04-25 13:39 -17.21746 145.63222 6790 ft 229 kts 126°
2026-04-25 13:40 -17.22430 145.64714 6799 ft 230 kts 105°
2026-04-25 13:40 -17.22489 145.66399 6800 ft 236 kts 83°
2026-04-25 13:40 -17.21908 145.68027 6806 ft 242 kts 69°
2026-04-25 13:40 -17.21252 145.69638 6793 ft 239 kts 79°
2026-04-25 13:41 -17.21075 145.71329 6792 ft 233 kts 95°
2026-04-25 13:41 -17.21183 145.73019 6797 ft 233 kts 98°
2026-04-25 13:41 -17.21338 145.74714 6797 ft 233 kts 99°
2026-04-25 13:41 -17.21501 145.76402 6789 ft 233 kts 99°
2026-04-25 13:42 -17.21654 145.78072 6601 ft 228 kts 93°
2026-04-25 13:42 -17.21288 145.79680 6562 ft 239 kts 68°
2026-04-25 13:42 -17.20394 145.81155 6562 ft 246 kts 60°
2026-04-25 13:42 -17.19412 145.82616 6633 ft 243 kts 60°
2026-04-25 13:43 -17.18427 145.84060 6593 ft 248 kts 59°
2026-04-25 13:43 -17.17363 145.85577 5958 ft 266 kts 58°
2026-04-25 13:43 -17.15957 145.86876 5148 ft 284 kts 29°
2026-04-25 13:43 -17.13941 145.87292 4255 ft 307 kts 359°
2026-04-25 13:44 -17.11950 145.86715 4400 ft 278 kts 333°
2026-04-25 13:44 -17.10593 145.85837 4683 ft 257 kts 326°
2026-04-25 13:44 -17.09127 145.84822 4887 ft 278 kts 328°
2026-04-25 13:44 -17.07429 145.83768 5353 ft 290 kts 332°
2026-04-25 13:45 -17.05637 145.82755 5301 ft 283 kts 333°
2026-04-25 13:45 -17.04011 145.81897 5123 ft 243 kts 337°
2026-04-25 13:45 -17.02583 145.81211 4811 ft 213 kts 337°
2026-04-25 13:45 -17.01269 145.80560 4163 ft 204 kts 338°
2026-04-25 13:46 -16.99994 145.79976 3505 ft 200 kts 341°
2026-04-25 13:46 -16.98700 145.79525 2829 ft 193 kts 343°
2026-04-25 13:46 -16.97478 145.79031 2216 ft 182 kts 344°
2026-04-25 13:46 -16.96296 145.78619 1532 ft 178 kts 342°
2026-04-25 13:47 -16.95116 145.78163 1202 ft 179 kts 340°
2026-04-25 13:47 -16.94032 145.77731 908 ft 159 kts 338°
2026-04-25 13:47 -16.92968 145.77248 803 ft 172 kts 332°
2026-04-25 13:47 -16.91852 145.76717 644 ft 179 kts 338°
2026-04-25 13:48 -16.90716 145.76218 389 ft 177 kts 334°
2026-04-25 13:48 -16.89626 145.75723 159 ft 167 kts 336°
2026-04-25 13:48 -16.88605 145.75269 27 ft 140 kts 333°
2026-04-25 13:48 -16.87822 145.74916 21 ft 105 kts 336°
2026-04-25 13:49 -16.87295 145.74675 5 ft 66 kts 336°
2026-04-25 13:49 -16.86904 145.74500 2 ft 56 kts 337°
2026-04-25 13:49 -16.86654 145.74371 7 ft 17 kts 326°
2026-04-25 13:49 -16.86623 145.74356 10 ft 1 kts
2026-04-25 13:50 -16.86620 145.74357 10 ft 1 kts 11°
2026-04-25 13:50 -16.86605 145.74370 9 ft 6 kts 48°
2026-04-25 13:50 -16.86602 145.74395 7 ft 2 kts 98°
2026-04-25 13:50 -16.86638 145.74417 7 ft 11 kts 179°
2026-04-25 13:51 -16.86763 145.74443 5 ft 25 kts 160°
2026-04-25 13:51 -16.86941 145.74521 4 ft 31 kts 154°
2026-04-25 13:51 -16.87052 145.74578 2 ft 7 kts 153°
2026-04-25 13:51 -16.87075 145.74613 0 ft 7 kts 103°
2026-04-25 13:52 -16.87060 145.74677 3 ft 11 kts 69°
2026-04-25 13:52 -16.87047 145.74729 3 ft 4 kts 89°
2026-04-25 13:52 -16.87076 145.74773 4 ft 13 kts 142°
2026-04-25 13:52 -16.87200 145.74835 5 ft 26 kts 156°
2026-04-25 13:53 -16.87352 145.74905 5 ft 7 kts 156°
2026-04-25 13:53 -16.87337 145.75220 13 ft 0 kts 158°